IRIDIUM 150 (43257 NORAD) Tracking and Keplerian Element Data

This shows tracking and keplerian element data for the satellite.

Feedback or suggestion? Click here.




ElementValue
Catalog43257
NameIRIDIUM 150
Epoch Orbit32426
Epoch Day160.22976147
Epoch Year2024
RAAN239.2573
Inclination86.3987
Eccentricity0.0002276
Argument of Perigee102.5408
Mean Anonmoly257.6042
Mean Motion14.34217621
Decay Rate-1E-08
L11 43257U 18030J 24160.22976147 -.00000001 00000+0 -75516-5 0 9995
L22 43257 86.3987 239.2573 0002276 102.5408 257.6042 14.34217621324266



Live tracking and technical data element details for IRIDIUM 150 (NORAD 43257). IRIDIUM 150 can be tracked NOW for your location showing map with azimuth and elevation plus other details from your city location.







IsCatalogInMostPopularTable: catalog: 43257, numindb: 604
Update: records affected: 1



GetName: 43257 IRIDIUM 150

Hit Count: updated at: Tue, 18 Jun 2024 00:26:40 GMT